EHI
0 0 0 0 0 0 0 0 0 0 0 0 2 5 6 6 4 3 3 2 1 1 1 1 0 0 1 3 3 4 4 5 6 6 7 7 7 7 7 8 8 8 8 9
0 0 0 0 0 0 0 0 0 0 0 0 3 6 7 6 5 5 4 3 2 2 2 2 1 1 3 3 3 4 5 5 6 7 9 10 9 9 8 7 7 6 6 7
0 0 0 0 0 0 0 0 0 0 0 2 5 7 6 5 6 6 5 4 3 3 3 2 2 3 4 4 4 5 5 5 6 7 10 11 11 10 9 7 5 5 4 5
0 0 0 0 0 0 0 0 0 0 1 3 6 6 5 4 4 5 4 3 3 3 3 2 2 4 5 3 3 4 5 6 6 7 9 11 11 10 9 7 5 4 3 4
0 0 0 0 1 0 0 0 0 1 2 4 5 5 4 3 3 3 3 2 2 2 2 1 1 3 4 2 3 4 5 6 6 7 9 12 13 13 12 10 7 5 4 4
0 0 0 0 1 1 0 0 1 2 3 4 4 5 4 3 3 2 1 1 1 1 1 0 0 1 2 2 3 4 4 5 6 8 11 15 17 17 16 14 11 8 7 6
0 0 0 1 2 2 1 1 2 3 2 2 3 4 4 3 2 1 0 0 0 0 0 1 1 1 2 3 3 3 3 4 6 8 12 16 19 19 18 16 13 11 9 9
0 0 0 1 2 2 1 1 2 2 1 1 3 3 2 1 0 0 0 0 0 1 1 2 2 2 3 3 3 3 3 3 5 8 12 16 18 18 16 14 11 10 9 10
0 0 0 0 1 1 1 1 1 1 1 2 3 3 2 1 1 0 0 1 1 2 2 3 3 2 2 3 3 4 5 5 6 8 12 14 15 15 13 12 9 8 8 8
1 0 0 0 0 0 0 0 0 0 1 2 2 3 3 2 2 1 1 2 2 3 3 3 2 1 1 2 3 4 6 7 8 9 11 12 12 12 12 11 10 9 8 7
1 0 0 0 0 0 0 0 0 0 0 1 2 3 3 3 2 1 1 2 2 2 2 1 1 0 1 2 3 4 6 7 7 7 8 9 9 10 10 9 9 8 7 7
1 0 0 0 0 0 0 0 0 0 1 1 3 3 3 3 3 1 1 1 1 1 1 0 0 1 2 3 4 5 7 7 6 5 5 7 7 7 6 5 4 4 4 4
0 0 0 0 0 0 0 0 0 1 2 3 3 3 3 4 4 3 2 2 2 1 1 0 0 2 4 5 6 6 8 8 7 5 5 6 7 6 5 4 2 1 1 1
0 0 0 0 0 0 1 1 1 2 3 3 3 3 4 4 4 3 3 2 2 2 1 1 1 2 4 6 6 7 8 7 7 6 6 7 8 8 7 6 4 2 1 0
0 0 0 0 0 1 2 2 3 3 3 3 3 3 3 4 4 3 2 1 1 1 1 1 2 3 4 4 5 6 7 7 6 5 5 7 8 7 7 6 5 3 2 1
0 0 0 0 0 2 3 3 3 3 3 3 3 3 3 3 3 3 2 1 0 0 0 2 3 3 3 3 4 4 5 5 5 3 3 4 5 5 5 4 4 3 3 2
0 0 0 0 0 1 3 4 4 3 3 3 3 3 3 3 3 3 3 1 1 1 1 2 3 3 3 3 3 3 4 3 2 2 1 2 3 3 3 3 3 3 3 3
0 0 0 0 0 1 3 4 5 4 3 3 3 3 3 3 3 3 4 3 3 2 2 3 3 3 3 3 3 3 3 2 1 0 0 1 2 3 3 3 3 3 3 3
1 1 0 0 0 1 3 4 4 4 4 3 3 3 3 3 3 3 4 4 3 3 3 3 3 3 3 3 3 2 1 1 0 0 0 0 1 3 3 3 3 3 3 3
0 0 0 0 0 1 3 4 4 4 4 3 3 3 3 3 3 3 3 2 1 1 2 2 2 2 2 2 2 1 0 0 0 0 0 0 1 2 3 3 3 2 2 1
0 0 0 0 0 1 3 4 5 5 4 3 3 3 3 3 3 3 2 1 0 0 1 1 1 1 1 1 1 0 0 0 0 0 0 0 0 1 2 2 1 1 1 0
0 0 0 0 0 1 3 4 4 5 5 4 3 3 3 3 3 3 3 1 0 0 0 0 0 0 0 0 0 0 0 0 0 0 0 0 0 0 1 1 0 0 0 0
0 0 0 0 0 1 2 2 3 4 4 3 3 3 3 3 3 2 2 1 0 0 0 0 0 0 0 0 0 0 0 0 0 0 0 0 0 0 0 0 0 0 0 0
0 0 0 0 0 0 1 1 1 2 2 2 2 2 2 2 1 1 1 0 0 0 0 0 0 0 0 0 0 0 0 0 0 0 0 0 0 0 0 0 0 0 0 0
0 0 0 0 0 0 0 0 0 1 1 1 1 1 1 1 0 0 0 0 0 0 0 0 0 0 0 0 0 0 0 0 0 0 0 0 0 0 0 0 0 0 0 0
0 0 0 0 0 0 0 0 0 0 0 0 0 0 0 0 0 0 0 0 0 0 0 0 0 0 0 0 0 0 0 0 0 0 0 0 0 0 0 0 0 0 0 0
0 0 0 0 0 0 0 0 0 0 0 0 0 0 0 0 0 0 0 0 0 0 0 0 0 0 0 0 0 0 0 0 0 0 0 0 0 0 0 0 0 0 0 0
Wind_Speed
2 2 3 2 2 3 3 5 7 6 5 6 5 4 3 2 2 2 2 2 2 2 1 1 1 1 1 1 1 1 1 2 3 3 2 2 1 2 2 2 2 2 3 2
1 1 2 2 0 2 2 2 3 2 5 4 2 1 0 1 2 2 1 1 1 1 1 2 2 2 2 2 1 1 2 3 3 2 2 2 2 2 2 2 2 2 2 3
2 2 2 2 3 3 2 2 4 5 6 1 1 1 1 1 2 2 2 1 2 2 3 3 2 2 2 2 1 1 2 2 2 2 2 2 2 2 3 3 3 3 3 3
3 2 3 7 2 3 3 1 1 2 2 2 3 1 0 1 1 2 2 2 2 2 2 2 1 1 1 1 1 2 2 3 2 2 3 3 3 3 4 3 3 3 3 4
4 3 3 5 2 2 3 2 1 2 2 2 3 4 3 2 0 2 2 2 2 1 1 1 1 1 0 1 1 2 3 3 3 3 3 3 4 4 3 3 4 3 3 4
5 4 5 6 3 1 3 2 2 3 4 4 3 2 3 2 1 0 1 0 0 0 1 1 1 1 1 1 1 3 3 4 3 3 4 4 4 4 3 3 4 3 4 4
4 3 6 6 3 2 3 7 3 4 5 4 3 4 3 1 1 1 0 1 0 1 1 0 1 1 1 1 3 4 4 3 3 3 4 4 3 3 3 3 3 3 4 4
4 3 6 3 2 4 6 2 2 4 4 3 2 2 1 1 1 1 2 1 1 1 1 1 1 1 1 3 4 4 3 3 3 3 3 3 2 3 2 2 3 3 3 4
7 6 5 3 3 3 2 3 2 3 4 5 3 2 1 1 1 1 2 2 1 1 1 2 1 0 2 4 3 3 3 3 3 3 3 2 2 3 2 2 2 3 3 4
1 3 3 3 2 1 1 2 2 3 4 4 4 3 2 1 1 1 2 1 1 2 2 3 3 2 2 3 3 3 3 3 2 2 3 2 2 2 2 2 3 3 3 4
1 3 3 3 2 1 0 2 2 2 2 4 5 3 2 1 0 0 1 1 0 0 1 3 4 4 3 3 2 2 3 3 2 2 2 2 2 2 3 3 4 4 4 4
6 7 5 4 3 1 2 1 2 3 2 2 3 3 2 1 1 1 1 1 1 1 2 3 3 4 4 3 2 1 2 2 2 2 2 2 2 2 3 4 5 5 4 4
5 3 4 3 2 1 2 2 2 3 3 2 1 3 3 2 1 1 2 1 2 2 3 3 3 4 4 3 2 2 2 2 2 2 2 2 1 2 3 4 4 4 5 5
4 3 1 2 2 1 2 2 2 2 1 2 2 2 2 1 1 1 3 3 2 2 2 2 3 4 4 3 3 3 2 2 2 2 2 2 2 2 2 3 4 4 4 5
3 3 4 3 1 1 2 3 3 1 1 1 0 1 1 2 2 3 3 2 2 2 2 2 3 5 4 3 3 3 2 2 2 1 2 2 2 2 2 3 3 4 4 4
1 2 3 3 2 2 2 3 3 1 1 1 1 1 1 2 2 3 2 2 2 3 4 3 4 5 4 3 3 2 2 3 2 1 1 2 2 2 2 3 3 3 3 3
4 3 3 3 2 2 1 2 2 2 2 2 2 2 1 1 2 3 3 3 3 4 4 4 5 4 3 3 3 2 2 2 3 2 2 2 2 2 2 3 3 3 3 3
4 4 4 5 4 2 1 1 1 2 2 3 2 2 2 2 3 4 4 3 2 3 4 4 4 3 3 4 3 2 2 2 2 2 2 2 2 2 2 2 3 3 3 3
2 2 2 2 3 3 2 1 2 2 2 2 2 3 3 3 4 4 3 3 3 4 5 4 4 3 4 4 3 2 2 2 2 2 2 2 2 2 1 2 2 3 3 3
2 2 2 1 1 1 1 2 2 2 2 2 2 2 3 4 3 3 3 4 4 4 4 4 4 3 3 4 3 2 2 2 2 2 2 2 2 2 2 2 3 3 3 3
2 2 2 1 1 1 1 2 2 2 3 2 3 4 4 4 3 2 2 4 4 3 3 3 3 3 3 2 3 2 2 2 2 2 2 2 2 2 2 2 2 2 3 3
1 1 1 1 1 2 2 2 2 2 2 2 2 3 3 3 3 2 3 3 3 3 2 2 2 3 2 2 1 1 1 1 2 2 2 2 2 2 2 2 2 2 3 3
1 1 1 1 1 2 3 3 2 2 2 3 3 3 3 3 2 2 3 3 2 3 2 2 3 3 2 1 1 1 1 2 2 2 2 2 2 2 2 3 2 2 2 3
1 1 2 2 1 1 2 3 3 2 2 2 3 3 2 2 2 2 3 3 2 2 1 2 3 2 1 0 0 1 1 1 2 2 1 1 1 1 2 2 2 2 2 3
1 2 2 2 2 2 3 3 2 2 2 2 2 2 2 2 2 2 2 1 1 1 1 2 2 2 0 0 1 1 1 1 1 1 1 1 1 1 2 2 2 2 2 2
1 2 2 3 3 3 2 1 1 2 2 2 2 2 1 1 1 1 0 0 1 1 2 2 1 1 1 1 1 1 1 1 1 1 1 1 1 2 2 2 2 2 2 2
2 2 2 2 3 2 2 2 2 2 2 2 2 2 1 1 0 0 1 1 1 2 2 2 1 1 1 1 1 1 1 1 1 1 1 1 1 1 2 2 2 1 2 2
Wind_Direction
192 199 158 149 157 150 153 173 178 216 219 243 237 230 230 207 161 130 130 145 162 174 197 219 239 265 269 277 277 255 237 251 255 258 259 258 260 258 249 241 238 234 230 234
58 29 101 75 129 179 184 169 191 211 254 252 227 154 172 190 154 152 190 194 191 195 205 228 236 245 269 269 258 237 240 259 269 272 267 261 257 252 247 248 245 239 234 228
213 302 53 303 247 200 191 194 171 207 241 213 159 153 203 211 184 189 214 206 208 223 227 232 234 230 249 250 260 258 261 269 271 260 261 265 267 259 253 250 246 246 242 234
122 90 209 243 258 167 161 223 222 230 238 196 186 172 58 150 182 225 227 215 220 235 250 253 236 235 246 268 279 277 283 288 281 268 266 271 261 257 256 251 244 244 244 240
119 153 266 291 272 173 168 258 235 184 154 115 108 67 20 357 187 221 229 227 229 243 257 258 245 230 124 337 302 292 288 287 280 274 272 267 260 259 256 248 250 249 248 242
122 145 219 246 280 267 117 276 252 163 157 146 109 94 260 284 320 298 324 328 300 16 48 13 327 8 64 301 289 282 284 283 274 267 266 261 259 263 261 250 252 254 257 252
137 179 250 256 284 89 148 242 225 174 172 161 173 199 212 228 317 7 4 348 20 96 82 309 346 62 33 313 291 287 292 293 283 267 263 261 260 261 267 262 263 265 267 269
136 161 248 277 120 170 218 232 169 168 172 164 166 161 145 132 53 21 17 12 35 68 29 350 21 63 329 295 292 303 301 300 290 275 275 283 275 275 267 255 264 272 277 285
177 205 240 269 232 240 183 178 190 174 174 159 148 133 99 63 39 15 19 26 39 66 19 351 342 315 280 290 303 313 313 305 300 295 285 277 267 271 277 266 260 269 268 274
176 270 278 286 279 290 213 215 208 171 160 149 146 143 129 114 46 12 12 19 40 60 21 330 323 314 283 296 306 309 308 305 301 293 296 296 277 256 252 257 258 262 263 268
219 265 314 314 291 271 64 91 96 104 130 148 140 146 152 149 171 328 349 334 40 81 298 300 312 310 302 301 304 305 306 304 302 294 279 288 288 272 263 254 247 246 257 259
212 217 197 240 262 218 140 138 134 118 94 112 141 150 150 179 215 230 259 285 298 281 273 283 293 298 303 311 309 299 306 307 303 300 297 289 288 311 308 286 287 271 268 268
212 207 200 225 253 200 162 159 147 139 150 158 171 160 162 188 236 263 283 268 253 262 272 281 288 293 297 302 301 275 273 281 290 294 294 290 292 298 313 324 320 307 300 293
197 154 174 221 219 207 148 138 120 104 124 159 172 162 154 182 240 262 267 262 257 269 281 286 292 295 298 301 296 287 279 275 281 280 282 285 281 282 288 302 315 318 314 306
231 195 188 185 164 136 133 122 110 98 75 39 131 161 169 190 238 255 263 268 274 283 285 291 291 290 298 301 297 287 283 276 269 269 277 280 281 282 284 287 291 301 315 321
196 132 137 144 160 179 150 136 141 185 191 201 211 239 239 234 259 266 265 258 257 270 274 271 273 280 290 296 297 294 287 295 290 279 286 290 288 288 291 291 293 300 307 315
156 174 171 177 189 194 204 201 191 205 209 215 232 235 242 267 289 282 271 261 251 258 262 257 265 279 281 278 277 281 288 293 302 303 293 290 289 286 290 296 304 311 313 323
190 199 189 177 176 174 198 206 201 204 219 233 235 229 232 238 258 274 278 279 285 292 282 268 270 275 273 271 268 272 271 277 282 283 291 296 298 291 290 297 307 309 315 326
135 150 162 164 166 166 186 209 229 243 244 233 227 237 246 252 256 269 277 274 273 279 284 289 287 271 266 267 270 256 258 272 288 297 299 303 301 307 307 303 303 305 311 317
73 98 109 102 109 158 205 235 231 244 251 239 236 252 266 266 261 264 269 266 256 253 272 289 290 274 265 263 264 251 251 259 271 288 300 299 295 298 300 297 300 305 310 311
49 51 62 39 324 288 240 228 227 245 254 240 231 244 258 270 269 255 261 274 277 269 273 280 280 276 267 262 254 245 244 253 269 279 281 284 290 294 298 302 305 308 310 310
19 13 353 328 306 310 302 283 250 249 260 266 262 255 257 271 283 279 257 247 264 274 270 270 279 275 271 263 242 233 237 251 263 270 272 276 276 278 282 288 291 298 302 303
320 309 307 297 278 281 301 301 280 259 257 261 264 262 255 255 248 245 278 275 265 267 266 273 289 285 274 256 240 237 248 262 270 272 274 278 276 270 271 280 285 291 298 302
297 303 300 299 310 313 303 301 305 287 268 267 263 255 245 255 274 254 241 264 270 273 280 296 308 305 269 228 244 263 262 261 264 268 271 281 286 286 282 282 287 295 299 303
296 309 318 317 302 273 268 287 313 315 312 304 298 285 261 227 233 266 270 270 281 313 329 323 327 329 323 282 271 275 281 284 283 282 302 308 305 297 290 290 293 298 301 304
295 287 282 272 264 259 260 264 278 287 287 297 308 309 308 290 257 281 328 346 352 342 342 335 338 336 332 331 326 317 315 324 15 30 9 350 341 333 326 326 330 332 329 330
306 306 307 308 297 271 255 255 258 268 258 244 274 297 305 316 319 347 54 36 15 358 351 349 355 353 350 354 351 358 22 33 39 35 18 358 348 338 333 334 336 339 341 344